Easton, MD

4:22 AM EST on February 12, 2016 (GMT -0500)
Easton / Newnam

Weather History for KESN - April, 2014

Change the Weather History Date:

Thursday, April 10, 2014

  Actual Average Record
Temperature  
Mean Temperature 54 °F -  
Max Temperature 68 °F 63 °F 87 °F (2013)
Min Temperature 39 °F 41 °F 29 °F (1972)
Degree Days  
Heating Degree Days 12    
Growing Degree Days 4 (Base 50)    
Moisture  
Dew Point 36 °F    
Average Humidity 57    
Maximum Humidity 87    
Minimum Humidity 28    
Precipitation  
Precipitation 0.00 in - - ()
Sea Level Pressure  
Sea Level Pressure 30.15 in    
Wind  
Wind Speed 3 mph (SSW)    
Max Wind Speed 16 mph    
Max Gust Speed 29 mph    
Visibility 10 miles    
Events      
Averages and records for this station are not official NWS values.
T = Trace of Precipitation, MM = Missing Value Source: NWS Daily Summary

Daily Weather History Graph

Daily Weather History Graph

Search for Another Location

Airport or City:

Trip Planner

Search our weather history database for the weather conditions in past years. The results will help you decide how hot, cold, wet, or windy it might be!

Date:

Astronomy

Apr. 10, 2014 Rise Set
Actual Time 6:35 AM EDT 7:36 PM EDT
Civil Twilight 6:08 AM EDT 8:03 PM EDT
Nautical Twilight 5:35 AM EDT 8:36 PM EDT
Astronomical Twilight 5:02 AM EDT 9:09 PM EDT
Moon 3:20 PM EDT (4/10) 3:54 AM EDT (4/10)
Length of Visible Light 13h 55m
Length of Day
13h 01m
Waxing Gibbous, 79% of the Moon is Illuminated
Apr 10
Waxing Gibbous
Apr 15
Full
Apr 22
Last Quarter
Apr 29
New
May 6
First Quarter

Hourly Weather History & Observations

Time (EDT) Temp. Windchill Dew Point Humidity Pressure Visibility Wind Dir Wind Speed Gust Speed Precip Events Conditions
12:05 AM 51.3 °F - 35.2 °F 54% 30.08 in 10.0 mi Calm Calm - N/A   Clear
12:25 AM 49.6 °F - 36.7 °F 61% 30.09 in 10.0 mi Calm Calm - N/A   Clear
12:46 AM 51.6 °F - 34.3 °F 52% 30.10 in 10.0 mi Calm Calm - N/A   Clear
1:06 AM 52.0 °F - 34.7 °F 52% 30.10 in 10.0 mi Calm Calm - N/A   Clear
1:26 AM 47.7 °F - 35.1 °F 62% 30.11 in 10.0 mi Calm Calm - N/A   Clear
1:46 AM 49.3 °F - 34.5 °F 57% 30.11 in 10.0 mi Calm Calm - N/A   Clear
2:06 AM 47.3 °F - 35.1 °F 62% 30.12 in 10.0 mi Calm Calm - N/A   Clear
2:26 AM 48.0 °F - 34.9 °F 60% 30.12 in 10.0 mi Calm Calm - N/A   Clear
2:46 AM 45.1 °F - 36.0 °F 70% 30.13 in 10.0 mi Calm Calm - N/A   Clear
3:06 AM 46.2 °F 44.1 °F 35.8 °F 67% 30.13 in 10.0 mi NNE 4.6 mph - N/A   Clear
3:26 AM 44.6 °F - 35.4 °F 70% 30.14 in 10.0 mi Calm Calm - N/A   Clear
3:46 AM 45.9 °F - 34.9 °F 66% 30.15 in 10.0 mi Calm Calm - N/A   Clear
4:06 AM 43.2 °F - 35.2 °F 74% 30.15 in 10.0 mi Calm Calm - N/A   Clear
4:26 AM 42.3 °F - 34.5 °F 74% 30.16 in 10.0 mi Calm Calm - N/A   Clear
4:46 AM 43.5 °F - 34.9 °F 72% 30.16 in 10.0 mi Calm Calm - N/A   Clear
5:06 AM 41.7 °F - 35.1 °F 77% 30.16 in 10.0 mi Calm Calm - N/A   Clear
5:26 AM 41.9 °F - 34.7 °F 76% 30.17 in 10.0 mi Calm Calm - N/A   Clear
5:46 AM 39.7 °F - 34.2 °F 80% 30.17 in 10.0 mi Calm Calm - N/A   Clear
5:50 AM 41.0 °F - 35.6 °F 81% 30.18 in 10.0 mi Calm Calm - N/A   Clear
6:06 AM 42.1 °F - 34.9 °F 76% 30.18 in 10.0 mi Calm Calm - N/A   Clear
6:24 AM 43.0 °F - 34.9 °F 73% 30.19 in 10.0 mi Calm Calm - N/A   Clear
6:53 AM 39.2 °F - 35.6 °F 87% 30.21 in 10.0 mi Calm Calm - N/A   Clear
8:53 AM 53.6 °F - 37.4 °F 54% 30.26 in 10.0 mi SSE 10.4 mph - N/A   Clear
9:53 AM 57.2 °F - 37.4 °F 48% 30.27 in 10.0 mi SE 8.1 mph - N/A   Clear
10:53 AM 62.6 °F - 37.4 °F 39% 30.27 in 10.0 mi SW 5.8 mph - N/A   Clear
11:53 AM 64.4 °F - 37.4 °F 37% 30.25 in 10.0 mi SW 10.4 mph - N/A   Clear
12:53 PM 66.2 °F - 35.6 °F 32% 30.23 in 10.0 mi SW 10.4 mph 19.6 mph N/A   Clear
1:50 PM 66.2 °F - 35.6 °F 32% 30.21 in 10.0 mi WSW 12.7 mph - N/A   Clear
2:45 PM 68.0 °F - 33.8 °F 28% 30.19 in 10.0 mi SSW 13.8 mph 23.0 mph N/A   Clear
3:50 PM 68.0 °F - 35.6 °F 30% 30.16 in 10.0 mi SSW 16.1 mph 23.0 mph N/A   Clear
4:50 PM 68.0 °F - 35.6 °F 30% 30.14 in 10.0 mi SSW 11.5 mph 23.0 mph N/A   Clear
5:45 PM 66.2 °F - 37.4 °F 35% 30.13 in 10.0 mi South 15.0 mph 23.0 mph N/A   Clear
6:45 PM 66.2 °F - 37.4 °F 35% 30.13 in 10.0 mi South 15.0 mph 28.8 mph N/A   Clear
7:50 PM 62.6 °F - 37.4 °F 39% 30.13 in 10.0 mi South 15.0 mph 23.0 mph N/A   Clear
8:50 PM 59.0 °F - 37.4 °F 45% 30.13 in 10.0 mi South 12.7 mph 23.0 mph N/A   Clear
10:48 PM 58.5 °F - 41.7 °F 54% 30.11 in 10.0 mi SSW 10.4 mph - N/A   Clear
11:08 PM 58.6 °F - 42.8 °F 56% 30.11 in 10.0 mi SSW 10.4 mph 19.6 mph N/A   Clear
11:28 PM 59.9 °F - 43.9 °F 55% 30.11 in 10.0 mi SSW 11.5 mph - N/A   Clear
11:48 PM 59.5 °F - 44.8 °F 58% 30.10 in 10.0 mi SSW 12.7 mph 19.6 mph N/A   Clear